Location: Newark
(49.3000°N, 9.4667°E)
Time: 18:53:31
(UTC+00:00)

Tiros 1 - Pass Details

Date: 25 May 2019
Orbit: 631 x 664 km, 48.4° (Epoch: 16 June)

Event Time Altitude Azimuth Distance (km) Brightness Sun altitude
Rises 14:28:00 0° 283° (WNW) 2,953 11.1 43.2°
Reaches altitude 10° 14:30:27 10° 275° (W) 2,046 10.7 42.8°
Maximum altitude 14:34:48 37° 208° (SSW) 1,006 9.3 42.2°
Drops below altitude 10° 14:39:10 10° 142° (SE) 2,058 9.7 41.5°
Sets 14:41:38 0° 134° (SE) 2,972 10.3 41.1°
